www.pogodaiklimat.ru

Погода и климат >> Архив погоды >> Буркина-Фасо >> Dedougou


ПОГОДА в Dedougou

  • Прогноз погоды в Dedougou
  • Монитор погоды в Dedougou
  • Климат города

АРХИВ ПОГОДЫ в Dedougou

Время (UTC), дата Ветер
(напр.,м/с)
 
Видим.   Явления Облачность Т
(С)
Тd
(С)
f
(%)
Тe
(С)
Тes
(С)
Комфортность P
(гПа)
Po
(гПа)
Тmin
(С)
Tmax
(С)
R
(мм)
R24
(мм)
S
(см)
06 19.04 Ю 1 15 км 9/0
[Ci sp]
+28.5 +10.5 33 +29 +29 жарко 1006.9 974.3 +28.5
09 19.04 З 1 15 км 9/0
[Ci sp]
+33.0 +14.1 32 +34 +44 очень
жарко
1008.5 975.8
12 19.04 СВ 2 15 км 9/0
[Ci sp]
+38.6 +16.5 27 +41 +59 опасность
перегрева
1006.7 974.3
15 19.04 штиль 0 15 км 9/1 600 м
[Sc Ci sp]
+40.8 +11.0 17 +40 +52 опасность
солнечного
удара
1003.7 971.2
18 19.04 штиль 0 15 км 9/0
[Ci sp]
+39.5 +12.1 20 +39 +39 очень
жарко
1003.3 970.8 +42.2
21 19.04 З 1 10 км 9/0
[Ci sp]
+34.5 +15.8 33 +37 +37 очень
душно
1004.7 972.1
00 20.04 СВ 2 10 км 9/0
[Ci sp]
+32.6 +10.1 25 +32 +32 жарко 1005.5 973.1
03 20.04 Ю 2 10 км 9/0
[Ci sp]
+32.5 +12.9 30 +33 +33 жарко 1004.0 971.8
06 20.04 ЮЗ 2 15 км 9/0
[Ci sp]
+30.0 +16.8 45 +34 +34 очень
душно
1005.3 972.7 +30.0
09 20.04 З 3 15 км 9/0
[Ci sp]
+34.5 +18.8 40 +39 +46 очень
душно
1007.5 974.9
12 20.04 ЮЗ 3 15 км 9/0
[Ci sp]
+38.8 +18.3 30 +42 +57 опасность
перегрева
1006.4 974.0
15 20.04 ЮВ 3 15 км 9/1 600 м
[Cu Sc Ci sp]
+40.6 +12.5 19 +40 +48 очень
жарко
1003.8 971.5
18 20.04 СЗ 2 15 км 9/1 600 м
[Sc Ac trans Ci sp]
+40.0 +14.2 22 +41 +41 опасность
перегрева
1003.2 970.8 +42.9
21 20.04 ЮЗ 3 10 км 9/0
[Ac trans Ci sp]
+36.8 +18.7 35 +41 +41 опасность
перегрева
1005.0 972.6
00 21.04 Ю 3 10 км 9/0
[Ci sp]
+34.5 +18.8 40 +39 +39 очень
душно
1005.9 973.5
03 21.04 ЮЗ 2 10 км 9/0
[Ac trans Ci sp]
+32.0 +18.4 44 +37 +37 очень
душно
1004.6 972.3
06 21.04 ЮЗ 3 15 км 9/0
[Ac trans Ci sp]
+30.7 +19.1 50 +36 +36 очень
душно
1005.6 973.2 +30.7
09 21.04 ЮЗ 3 15 км 9/0
[Ci sp]
+33.1 +19.2 44 +38 +45 очень
душно
1007.0 974.5
12 21.04 Ю 2 15 км 9/1 600 м
[Sc Ci sp]
+38.0 +19.9 35 +43 +60 опасность
перегрева
1006.5 974.1
15 21.04 Ю 1 15 км 9/1 600 м
[Cb cap Ci sp]
+39.9 +15.7 24 +41 +52 опасность
перегрева
1003.9 971.6
18 21.04 Ю 2 15 км 9/1 600 м
[Sc Ci sp]
+38.0 +15.6 27 +40 +40 очень
душно
1003.7 971.2 +42.0
21 21.04 Ю 2 10 км 9/0
[Ac trans Ci sp]
+33.5 +15.5 34 +36 +36 очень
душно
1006.6 973.9
00 22.04 Ю 2 10 км 9/0
[Ci sp]
+31.6 +18.2 45 +36 +36 очень
душно
1007.8 975.2
03 22.04 Ю 2 10 км 9/0
[Ci sp]
+30.1 +17.8 48 +35 +35 очень
душно
1006.7 974.2
06 22.04 ЮЗ 3 15 км 9/0
[Ci sp]
+28.6 +20.3 61 +35 +35 очень
душно
1007.1 974.4 +28.6
09 22.04 ЮЗ 4 15 км 9/0
[Ci sp]
+31.6 +20.4 52 +39 +44 очень
душно
1009.3 976.5
12 22.04 З 3 15 км 9/0
[Ci sp]
+37.0 +19.3 36 +42 +57 опасность
перегрева
1007.9 975.3
15 22.04 З 2 15 км 9/1 600 м
[Sc Ci sp]
+39.5 +16.8 27 +42 +51 опасность
перегрева
1005.0 972.5
18 22.04 ЮЗ 3 15 км 9/1 600 м
[Cu Sc Ci sp]
+38.0 +16.7 29 +41 +41 опасность
перегрева
1004.4 971.7 +41.0
21 22.04 С 3 10 км 9/1 600 м
[Sc Ci sp]
+35.5 +17.7 35 +39 +39 очень
душно
1006.5 973.9
00 23.04 З 4 10 км гроза без осадков 9/1 1200 м
[Cb cap Ci sp]
+30.2 +18.5 50 +35 +35 очень
душно
1007.4 974.7
03 23.04 СЗ 3 6000 м гроза, ливневой дождь 10/1 1200 м
[Cb cap Ac As]
+22.5 +21.5 94 +30 +30 очень
душно
1009.8 976.8
06 23.04 Ю 4 15 км в посл. час дождь {гроза} 9/0
[Ac As]
+23.0 +21.5 91 +31 +31 очень
душно
1011.0 977.8 +21.5 37
09 23.04 ЮВ 4 15 км 9/0
[Ac As Ci sp]
+27.0 +19.4 63 +33 +35 очень
душно
1011.9 978.8
12 23.04 ЮЗ 3 15 км 9/0 180 м
[Ac As Ci sp]
+29.2 +21.1 62 +37 +43 очень
душно
1010.6 977.4
15 23.04 ЮЗ 3 15 км 9/0
[Ac trans Ci sp]
+33.0 +21.4 51 +41 +49 опасность
перегрева
1007.6 974.3
18 23.04 Ю 1 15 км 9/0
[Ac trans Ci sp]
+32.2 +23.1 59 +43 +43 опасность
перегрева
1006.9 973.6 +34.5
21 23.04 ЮВ 1 10 км 6/0
[Ci sp]
+29.6 +23.0 68 +40 +40 очень
душно
1008.7 975.4
00 24.04 штиль 0 10 км 6/0
[Ci sp]
+28.5 +23.5 74 +39 +39 очень
душно
1009.2 976.0
03 24.04 ЮВ 1 10 км 6/0
[Ci sp]
+27.5 +22.4 74 +36 +36 очень
душно
1007.8 974.7
06 24.04 ЮВ 1 15 км 9/0
[Ci sp]
+27.5 +21.2 69 +35 +35 очень
душно
1009.0 975.8 +27.5
09 24.04 Ю 5 15 км 9/0
[Ci sp]
+30.1 +21.8 61 +38 +43 очень
душно
1011.5 978.3
12 24.04 ЮЗ 4 15 км 9/1 600 м
[Cu Sc Ci sp]
+33.5 +22.8 54 +44 +54 опасность
перегрева
1010.5 977.4
15 24.04 ЮВ 3 15 км 9/0
[Ac trans Ci sp]
+36.0 +22.5 46 +45 +53 опасность
перегрева
1007.2 974.3
18 24.04 СЗ 2 15 км 9/0
[Ac trans Ci sp]
+34.9 +22.2 48 +44 +44 опасность
перегрева
1006.6 973.7 +37.2
21 24.04 штиль 0 10 км 9/0
[Ac trans Ci sp]
+31.5 +24.5 66 +44 +44 опасность
перегрева
1008.1 975.1
00 25.04 В 2 10 км 9/0
[Ci sp]
+30.0 +23.6 69 +41 +41 опасность
перегрева
1008.4 975.5
03 25.04 ЮЗ 2 10 км 9/0
[Ci sp]
+29.0 +22.5 68 +38 +38 очень
душно
1007.1 974.3
06 25.04 ЮЗ 2 15 км 9/0
[Ac trans Ci sp]
+27.8 +23.1 76 +37 +37 очень
душно
1007.7 974.8 +27.8
09 25.04 ЮЗ 2 15 км 9/0
[Ac trans Ci sp]
+32.0 +21.2 53 +40 +47 очень
душно
1009.2 976.2
12 25.04 СЗ 3 15 км 6/1 600 м
[Sc Ci sp]
+36.0 +21.8 44 +44 +59 опасность
перегрева
1008.5 975.7
15 25.04 СЗ 2 15 км 6/1 600 м
[Sc Ci sp]
+38.5 +20.4 35 +44 +55 опасность
перегрева
1004.9 972.3
18 25.04 СВ 3 15 км 8/1 600 м
[Cb cap Ci sp]
+35.5 +19.2 38 +40 +41 очень
душно
1004.6 971.8 +40.1
21 25.04 СВ 3 10 км гроза без осадков 9/1 1200 м
[Cb cap Ci sp]
+31.6 +18.6 46 +36 +36 очень
душно
1007.4 974.5
00 26.04 ЮВ 1 10 км {гроза} 9/0
[Ac trans Ci sp]
+30.5 +20.1 54 +37 +37 очень
душно
1006.9 974.2
03 26.04 Ю 4 10 км 9/0
[Ci sp]
+28.0 +20.6 64 +35 +35 очень
душно
1006.3 973.6

 

Местоположение метеостанции Dedougou (Буркина-Фасо): широта 12.47 долгота -3.48 высота над уровнем моря 300 м.

В архиве по умолчанию представлена погода в Dedougou за последнюю неделю. Архивные данные за месяц целиком и за предыдущие месяцы, начиная с января 2011 года, Вы можете получить, выбрав интересующий диапазон дат из раскрывающегося списка и нажав кнопку "Ввод!".

Внимание! Время в таблицах - всемирное. Для получения местного времени необходимо прибавить поправку, которая в Dedougou равна 0 ч.

Смотрите также архив погоды в соседних городах и на ближайших метеорологических станциях:

Погода в Boromo (Буркина-Фасо) (100 км)
Погода в Ouahigouya (Буркина-Фасо) (168 км)
Погода в Bobo-Dioulasso (Буркина-Фасо) (171 км)
Погода в San (Мали) (175 км)
Погода в Ouagadougou (Буркина-Фасо) (213 км)
Погода в Koutiala (Мали) (216 км)
Погода в Mopti (Мали) (238 км)
Погода в Gaoua (Буркина-Фасо) (240 км)
Погода в Sikasso (Мали) (270 км)
Погода в Wa (Гана) (290 км)

Пояснения к столбцам:

Ветер - указаны скорость ветра в м/с - средняя за 10 мин, порывы в срок и между сроками (в фигурных скобках) и направление, откуда дует ветер: С - северный, СВ - северо-восточный, В - восточный, ЮВ - юго-восточный, Ю - южный, ЮЗ - юго-западный, З - западный, СЗ - северо-западный.
Видимость - горизонтальная дальность видимости в метрах или километрах. При видимости от 1 до 10 км при отсутствии осадков обычно наблюдается дымка, при ухудшении видимости до 1 км и менее - туман. В сухую погоду видимость может ухудшаться дымом, пылью или мглою.
Явления - указаны атмосферные явления, наблюдавшиеся в срок или в последний час перед сроком; фигурными скобками обозначены явления, наблюдавшиеся между сроками (за 1-3 часа до срока); квадратными скобками обозначены град или гололедные отложения с указанием их диаметра в мм.
Облачность - указаны через наклонную черту общая и нижняя облачность в баллах и высота нижней границы облаков в метрах; квадратными скобками обозначены формы облаков: Ci - перистые, Cs - перисто-слоистые, Cc - перисто-кучевые, Ac - высококучевые, As - высокослоистые, Sc - слоисто-кучевые, Ns - слоисто-дождевые, Cu - кучевые, Cb - кучево-дождевые. Подробнее классификацию облаков см. в Атласе облаков (PDF).
T - Температура воздуха - температура, измеренная на высоте 2 м над землей.
Td - Температура точки росы - температура, при понижении до которой содержащийся в воздухе водяной пар достигнет насыщения.
f - Относительная влажность воздуха - влажноcть воздуха, измеренная на высоте 2 м над землей.
Te - Эффективная температура - температура, которую ощущает одетый по сезону человек в тени. Характеристика душности погоды. При расчете учитывается влияние влажности воздуха и скорости ветра на теплоощущения человека.
Tes - Эффективная температура на солнце - температура, которую ощущает человек, с поправкой на солнечный нагрев. Характеристика знойности погоды. Зависит от высоты солнца над горизонтом, облачности и скорости ветра. Ночью, в пасмурную погоду, а также при ветре 12 м/с и более поправка равна нулю.
P - Атмосферное давление - приведенное к уровню моря атмосферное давление.
Po - Атмосферное давление - измеренное на уровне метеостанции атмосферное давление.
Tmin - Минимальная температура - минимум температуры воздуха на высоте 2 м над землей.
Tmax - Максимальная температура - максимум температуры воздуха на высоте 2 м над землей.
R - Количество осадков - Количество выпавших осадков за период времени, мм. При наведении курсора мыши на число - период времени, за который выпало указанное количество осадков.
R24 - Количество осадков - Количество выпавших осадков за 24 часа, мм.
S - Снежный покров - Высота снежного покрова, см. При наведении курсора мыши на число - состояние снежного покрова и степень покрытия местности в баллах.